Orbital Elements at Epoch 2459000.5 (2020-May-31.0) TDB
Reference: JPL 14 (heliocentric ecliptic J2000)
Element | Value | Uncertainty (1-sigma) | Units |
e | .1926645622188146 | 6.3243e-08 | |
a | 2.642736304508182 | 2.4121e-08 | au |
q | 2.133574671340345 | 1.7545e-07 | au |
i | 6.45775285912998 | 8.1782e-06 | deg |
node | 10.61195412752084 | 4.36e-05 | deg |
peri | 54.45720513628206 | 4.9296e-05 | deg |
M | 170.7245567914512 | 2.629e-05 | deg |
tp | 2458256.329129254844 (2018-May-17.82912925) | 0.00010718 | TDB |
period | 1569.203156845863 4.30 | 2.1484e-05 5.882e-08 | d yr |
n | .2294158015356079 | 3.141e-09 | deg/d |
Q | 3.151897937676019 | 2.8769e-08 | au |
|
| | Orbit Determination Parameters
Additional Information
|